User: anonymous
Location: Hopkins Observatory
(42.6965°N, 73.1843°W)
Time: 23:33:06
(UTC-04:00)
Language:

RS-15 - Orbit

View from above orbital plane
View from above orbital plane
View from above satellite
View from above satellite

Ground track
Ground track

The orbit data is extracted from the following two-line orbital elements,

1 23439U 94085A   14203.16697061 -.00000039  00000-0  10000-3 0  6920
2 23439 064.8161 135.1614 0145435 075.7330 285.9696 11.27561419805945
Epoch (UTC): 22 July 2014 04:00:26
Eccentricity: 0.0145435
inclination: 64.8161°
perigee height: 1900 km
apogee height: 2144 km
right ascension of ascending node: 135.1614°
argument of perigee: 75.7330°
revolutions per day: 11.27561419
mean anomaly at epoch: 285.9696°
orbit number at epoch: 80594

The dashed part of the orbit path shows where the satellite is in the earth's shadow,  

DLR